This is the latest recevied weather packets stored in our database for station/object W4KBW. If no packets are shown the sender has not sent any weather packets the latest 1 day(s).
| Time | Temp. | Humidity | Pressure | Rain* | Wind** | Luminosity | Snow |
|---|---|---|---|---|---|---|---|
| 1778080824 | 30° C | 100% | 1016.2 hPa | 0 mm | - | - | - |
| 1778080027 | 29.44° C | 100% | 1016.3 hPa | 0 mm | - | - | - |
| 1778079924 | 29.44° C | 100% | 1016.3 hPa | 0 mm | - | - | - |
| 1778079049 | 28.89° C | 100% | 1016.2 hPa | 0 mm | - | - | - |
| 1778078994 | 28.89° C | 100% | 1016.2 hPa | 0 mm | - | - | - |
| 1778078209 | 28.33° C | 100% | 1016.3 hPa | 0 mm | - | - | - |
| 1778078094 | 28.33° C | 100% | 1016.3 hPa | 0 mm | - | - | - |
| 1778077194 | 27.22° C | 100% | 1016.1 hPa | 0 mm | - | - | - |
| 1778076264 | 27.22° C | 100% | 1016 hPa | 0 mm | - | - | - |
| 1778075334 | 26.11° C | 100% | 1016 hPa | 0 mm | - | - | - |
| 1778074565 | 25.56° C | 100% | 1016.1 hPa | 0 mm | - | - | - |
| 1778074434 | 25.56° C | 100% | 1016.1 hPa | 0 mm | - | - | - |
| 1778072788 | 24.44° C | 100% | 1015.9 hPa | 0 mm | - | - | - |
| 1778072604 | 24.44° C | 100% | 1015.9 hPa | 0 mm | - | - | - |
| 1778071704 | 23.33° C | 100% | 1015.8 hPa | 0 mm | - | - | - |
| 1778070804 | 22.78° C | 100% | 1015.6 hPa | 0 mm | - | - | - |
| 1778069874 | 22.22° C | 100% | 1015.6 hPa | 0 mm | - | - | - |
| 1778068974 | 21.67° C | 100% | 1015.5 hPa | 0 mm | - | - | - |
| 1778068246 | 21.11° C | 100% | 1015.4 hPa | 0 mm | - | - | - |
| 1778068074 | 21.11° C | 100% | 1015.4 hPa | 0 mm | - | - | - |
| 1778067174 | 20.56° C | 100% | 1015.4 hPa | 0 mm | - | - | - |
| 1778066244 | 19.44° C | 100% | 1015.2 hPa | 0 mm | - | - | - |
| 1778065314 | 19.44° C | 100% | 1014.9 hPa | 0 mm | - | - | - |
| 1778064865 | 19.44° C | 100% | 1014.8 hPa | 0 mm | - | - | - |
| 1778064414 | 19.44° C | 100% | 1014.8 hPa | 0 mm | - | - | - |
* Rain latest hour (hover to see other rain measurements)
** Current wind speed in m/s (hover to see current wind gust speed)